Weather History for KFLG - March, 2014

Change the Weather History Date:

Wednesday, March 12, 2014

  Actual Average Record
Temperature  
Mean Temperature 39 °F 36 °F  
Max Temperature 51 °F 50 °F 72 °F (1900)
Min Temperature 26 °F 23 °F -1 °F (1917)
Degree Days  
Heating Degree Days 26 29  
Month to date heating degree days 293 356  
Since 1 July heating degree days 4894 5195  
Cooling Degree Days 0 0  
Month to date cooling degree days 0 0  
Year to date cooling degree days 0 0  
Moisture  
Dew Point 14 °F    
Average Humidity 44    
Maximum Humidity 63    
Minimum Humidity 24    
Precipitation  
Precipitation 0.00 in 0.07 in 1.43 in (1906)
Month to date precipitation 1.13 0.90  
Year to date precipitation 1.73 5.11  
Snow  
Snow 0.00 in 0.70 in 10.20 in (2006)
Month to date snowfall 1.1 9.0  
Since 1 July snowfall 34.6 82.2  
Snow Depth 0.00 in    
Sea Level Pressure  
Sea Level Pressure 30.09 in    
Wind  
Wind Speed 9 mph (East)    
Max Wind Speed 21 mph    
Max Gust Speed 29 mph    
Visibility 10 miles    
Events      
T = Trace of Precipitation, MM = Missing Value Source: NWS Daily Summary

Daily Weather History Graph

Daily Weather History Graph

Search for Another Location

Airport or City:

Trip Planner

Search our weather history database for the weather conditions in past years. The results will help you decide how hot, cold, wet, or windy it might be!

Date:

Astronomy

Mar. 12, 2014 Rise Set
Actual Time 6:41 AM MST 6:31 PM MST
Civil Twilight 6:16 AM MST 6:57 PM MST
Nautical Twilight 5:46 AM MST 7:26 PM MST
Astronomical Twilight 5:17 AM MST 7:56 PM MST
Moon 3:11 PM MST (3/12) 4:08 AM MST (3/12)
Length of Visible Light 12h 41m
Length of Day
11h 50m
Waxing Gibbous, 86% of the Moon is Illuminated
Mar 12
Waxing Gibbous
Mar 16
Full
Mar 23
Last Quarter
Mar 30
New
Apr 7
First Quarter

Hourly Weather History & Observations

Time (MST) Temp. Windchill Dew Point Humidity Pressure Visibility Wind Dir Wind Speed Gust Speed Precip Events Conditions
12:57 AM 33.1 °F 24.9 °F 5.0 °F 31% 30.02 in - ENE 10.4 mph - N/A   Clear
1:57 AM 33.1 °F 23.9 °F 8.1 °F 35% 30.01 in - ENE 12.7 mph - N/A   Clear
2:57 AM 32.0 °F 23.6 °F 10.0 °F 40% 30.02 in - ENE 10.4 mph - N/A   Clear
3:57 AM 30.9 °F 22.2 °F 12.0 °F 46% 30.03 in - ENE 10.4 mph - N/A   Clear
4:57 AM 30.9 °F 21.7 °F 12.9 °F 47% 30.04 in - ENE 11.5 mph - N/A   Clear
5:57 AM 28.9 °F 21.1 °F 12.9 °F 51% 30.08 in - East 8.1 mph - N/A   Clear
6:57 AM 28.0 °F 18.1 °F 14.0 °F 56% 30.14 in 10.0 mi ENE 11.5 mph - N/A   Clear
7:57 AM 33.1 °F 24.9 °F 14.0 °F 46% 30.14 in 10.0 mi ENE 10.4 mph - N/A   Clear
8:57 AM 35.1 °F 25.2 °F 15.1 °F 44% 30.16 in 10.0 mi ENE 16.1 mph 25.3 mph N/A   Clear
9:57 AM 39.0 °F 29.6 °F 12.9 °F 34% 30.14 in 10.0 mi ENE 18.4 mph 25.3 mph N/A   Clear
10:57 AM 41.0 °F 33.5 °F 12.9 °F 32% 30.14 in 10.0 mi East 13.8 mph 24.2 mph N/A   Clear
11:57 AM 43.0 °F 35.7 °F 12.9 °F 30% 30.13 in - East 15.0 mph 21.9 mph N/A   Clear
12:57 PM 46.0 °F 40.6 °F 12.9 °F 26% 30.10 in 10.0 mi East 11.5 mph 20.7 mph N/A   Clear
1:57 PM 46.0 °F 41.4 °F 14.0 °F 28% 30.07 in 10.0 mi East 9.2 mph 17.3 mph N/A   Clear
2:57 PM 48.9 °F - 14.0 °F 25% 30.05 in 10.0 mi East 9.2 mph 17.3 mph N/A   Clear
3:57 PM 48.9 °F - 15.1 °F 26% 30.04 in 10.0 mi East 8.1 mph - N/A   Clear
4:57 PM 48.9 °F - 15.1 °F 26% 30.04 in 10.0 mi ESE 9.2 mph - N/A   Clear
5:57 PM 46.9 °F - 15.1 °F 28% 30.06 in 10.0 mi East 6.9 mph - N/A   Clear
6:57 PM 41.0 °F 39.0 °F 18.0 °F 40% 30.10 in - ESE 3.5 mph - N/A   Clear
7:57 PM 34.0 °F - 17.1 °F 50% 30.12 in - Calm Calm - N/A   Clear
8:57 PM 30.9 °F - 17.1 °F 57% 30.14 in - Calm Calm - N/A   Clear
9:57 PM 28.9 °F - 16.0 °F 58% 30.13 in 10.0 mi Calm Calm - N/A   Clear
10:57 PM 27.0 °F - 16.0 °F 63% 30.12 in - Calm Calm - N/A   Clear
11:57 PM 26.1 °F - 16.0 °F 66% 30.10 in - Calm Calm - N/A   Clear